Location: Unspecified
(41.5000°N, 0.0000°E)
Time: 17:03:55
(UTC+00:00)

Vanguard 1 - Pass Details

Date: 22 June 2019
Orbit: 653 x 3830 km, 34.3° (Epoch: 18 July)

Event Time Altitude Azimuth Distance (km) Brightness Sun altitude
Exits shadow 01:13:56 28° 187° (S) 4,827 12.9 -22.9°
Maximum altitude 01:21:03 36° 153° (SSE) 3,917 12.7 -22.5°
Drops below altitude 10° 01:32:37 10° 93° (E) 4,473 13.6 -21.7°
Sets 01:35:48 0° 85° (E) 5,094 14.1 -21.5°
